User: anonymous   Login
Location: ????????
(55.8351°N, 38.7040°E)
Time: 01:17:36
(UTC+00:00)
Language:

BlueWalker 3 - Orbit

View from above orbital plane
View from above orbital plane
View from above satellite
View from above satellite

Ground track
Ground track

The orbit data is extracted from the following two-line orbital elements,

1 53807U 22111AL  24174.30444981  .00003936  00000-0  16288-3 0  9990
2 53807  53.2355 170.0401 0009765 102.7633 257.4459 15.26267645 99019
Epoch (UTC): 22 June 2024 07:18:24
Eccentricity: 0.0009765
inclination: 53.2355°
perigee height: 480 km
apogee height: 493 km
right ascension of ascending node: 170.0401°
argument of perigee: 102.7633°
revolutions per day: 15.26267645
mean anomaly at epoch: 257.4459°
orbit number at epoch: 9901

The dashed part of the orbit path shows where the satellite is in the earth's shadow,  

DLR